Wind_Speed
37 38 38 38 39 39 39 39 40 39 39 39 39 39 39 39 39 39 38 38 38 38 38 37 37 36 36 36 35 34 34 33 32 31 31 30 30 29 29 28 27 27 25
39 40 40 40 41 41 41 41 42 42 42 42 42 42 42 42 42 42 42 41 40 40 41 40 39 39 38 38 38 37 36 35 35 34 34 33 32 31 31 30 29 29 28
41 41 42 42 43 43 43 43 43 44 44 44 44 45 45 45 45 44 45 45 44 44 43 43 43 42 41 41 40 39 38 38 37 36 36 36 35 35 34 33 32 31 30
43 43 44 45 45 45 45 46 46 46 46 47 47 47 48 48 48 48 47 47 47 47 46 46 46 45 45 44 44 43 42 41 41 40 39 38 38 38 37 36 34 33 32
46 46 46 46 46 47 47 47 48 48 49 49 50 50 51 51 51 50 50 49 49 49 49 49 48 48 48 48 47 46 46 45 44 43 42 41 41 40 39 38 37 36 34
47 47 47 47 48 49 49 49 50 51 51 52 52 52 53 54 53 53 52 52 51 51 51 51 51 50 50 50 50 50 49 48 47 46 45 45 44 43 42 41 40 39 37
49 49 49 49 50 50 51 51 52 53 54 55 54 54 54 55 55 55 55 55 55 54 53 53 53 53 52 52 52 52 52 51 50 50 48 47 46 45 44 44 43 41 40
51 52 52 52 52 52 53 54 54 54 55 55 55 55 55 56 56 57 57 57 57 57 56 56 55 55 55 55 53 53 54 53 53 53 52 50 49 48 47 46 45 44 43
52 53 53 54 55 55 55 56 56 55 55 55 55 56 56 56 56 56 57 58 58 57 57 57 57 57 57 57 57 56 56 56 56 55 54 53 52 51 49 48 48 47 46
53 55 55 55 56 56 57 56 56 57 57 56 57 57 57 57 57 56 56 56 56 57 57 57 57 57 58 58 58 58 58 58 58 57 56 56 54 54 52 52 51 49 49
53 54 55 56 56 57 57 57 58 58 58 58 58 57 57 57 57 57 56 56 57 58 57 57 58 57 58 58 59 59 59 58 59 58 57 57 57 56 55 55 54 53 52
53 53 54 56 56 58 57 57 58 58 58 58 58 58 57 57 57 58 57 57 57 58 59 58 58 59 59 59 59 60 60 60 61 60 60 59 59 58 57 57 56 56 55
54 54 54 54 55 56 56 57 57 57 57 57 57 57 57 58 58 58 58 58 58 57 58 59 60 60 60 60 60 60 61 61 62 63 62 62 62 61 60 59 58 58 57
54 53 53 53 52 53 54 54 55 56 56 56 55 56 56 56 57 57 58 58 58 57 58 59 60 61 61 62 62 61 61 62 63 64 64 64 64 64 63 62 62 60 59
53 53 53 52 51 52 52 53 54 54 54 55 55 55 55 56 55 56 57 58 58 58 58 58 61 62 62 63 63 63 63 63 64 65 66 66 67 67 67 66 66 65 63
52 52 52 52 51 52 52 53 53 53 53 54 55 55 55 56 55 56 56 57 57 58 58 58 60 61 62 63 64 64 64 64 65 66 68 68 69 69 70 69 68 68 67
51 51 51 51 51 51 51 52 52 52 52 53 54 54 54 56 55 55 55 56 57 58 58 58 59 60 61 62 62 64 65 66 65 66 67 68 69 70 71 71 70 70 69
49 49 50 50 50 50 50 50 50 51 51 51 52 52 53 54 54 54 55 55 56 56 57 57 58 60 61 61 61 61 63 64 64 65 67 68 70 70 71 72 72 72 71
48 48 48 48 48 49 49 49 49 49 49 50 50 51 51 52 53 53 53 53 54 55 55 56 56 58 60 60 60 61 62 62 62 64 65 66 68 69 70 71 72 72 72
46 46 47 47 47 47 47 47 47 48 48 48 48 49 49 50 51 51 52 52 53 53 54 54 55 56 58 59 59 59 60 60 61 62 63 64 65 66 68 70 71 72 73
45 45 45 45 45 45 45 45 46 46 46 46 46 47 48 48 48 49 50 51 51 51 52 53 53 54 56 57 58 58 58 59 60 61 62 62 63 63 65 67 69 70 72
45 44 44 44 43 43 43 44 44 44 44 44 44 45 47 47 46 47 47 48 50 51 50 50 51 52 54 55 56 56 57 57 58 59 60 61 61 61 63 65 67 68 70
44 44 43 43 42 42 42 42 42 42 42 43 43 43 44 44 44 45 46 47 48 49 50 50 49 50 52 53 54 54 54 55 55 56 58 59 61 61 61 62 64 66 68
44 43 42 41 41 41 41 41 41 41 41 41 41 41 42 42 43 43 44 45 46 47 48 49 49 49 49 51 53 53 53 53 53 53 54 55 57 58 59 59 60 62 64
42 41 40 40 40 40 40 40 40 39 39 40 40 40 40 40 41 42 43 44 45 45 46 47 48 48 49 50 51 52 51 52 51 51 52 53 54 55 56 57 58 59 61
39 39 39 39 39 38 38 38 39 38 38 38 38 39 40 40 40 41 42 42 43 44 45 46 47 48 47 47 49 50 50 50 50 50 50 52 52 54 54 54 55 57 58
Wind_Direction
266 264 263 262 261 261 261 261 261 261 261 261 260 260 259 258 258 257 257 255 254 254 254 254 253 253 252 252 252 252 251 251 251 250 249 248 248 249 249 250 249 250 251
267 266 264 263 262 262 263 263 263 263 262 262 261 260 260 259 258 257 257 256 255 254 253 253 253 253 252 251 251 251 251 251 251 251 250 249 248 249 250 251 251 250 251
268 267 265 264 264 263 264 264 264 264 264 263 262 261 260 259 259 258 257 256 256 255 254 254 253 253 251 251 251 250 250 250 251 251 251 250 249 249 250 250 251 252 252
269 268 266 264 264 264 265 265 264 264 265 264 264 263 262 261 260 258 257 257 256 255 254 254 254 253 251 250 250 250 249 250 250 251 251 251 250 249 249 249 250 251 252
270 269 267 266 265 265 265 266 266 265 265 265 265 264 264 262 261 259 258 257 256 255 254 254 254 253 251 250 249 249 249 250 250 250 251 251 251 250 249 249 250 251 251
271 270 269 268 267 266 266 267 267 266 266 266 266 265 264 262 261 259 258 257 256 255 254 254 254 253 251 250 249 249 249 250 250 250 250 250 250 250 249 249 250 249 250
271 271 270 269 269 268 268 268 268 267 267 266 266 265 265 263 261 260 258 257 256 255 255 254 254 253 251 250 249 249 249 249 249 250 250 249 249 249 249 250 250 249 249
272 272 271 270 269 269 270 269 269 268 267 266 266 265 264 263 261 260 258 257 257 256 255 254 254 253 251 250 249 249 248 248 249 249 250 249 249 250 250 249 249 249 249
273 273 273 271 270 269 270 270 269 268 267 266 266 266 264 262 261 259 258 257 256 256 256 255 254 253 251 249 249 249 248 248 249 249 249 249 249 249 249 249 249 249 249
274 274 273 272 270 269 270 269 269 268 267 266 267 267 266 264 261 259 256 256 255 255 256 255 254 252 251 249 248 247 247 248 248 248 247 247 248 248 248 248 249 249 249
277 276 274 273 272 270 270 270 269 269 268 267 266 267 266 265 263 260 256 255 255 255 255 255 253 252 250 249 249 248 247 247 247 247 247 246 246 247 247 248 249 248 249
277 277 276 274 273 272 271 270 270 269 268 267 267 267 266 264 262 260 258 256 255 255 255 254 252 251 250 249 249 248 248 247 247 246 246 246 246 246 246 247 248 248 249
278 278 277 276 274 273 271 271 270 269 267 267 267 266 265 264 261 259 259 258 256 255 255 254 253 252 251 250 249 249 249 248 248 247 246 246 246 247 246 247 248 248 249
278 278 278 277 275 274 272 271 270 269 267 267 266 266 265 264 261 260 260 259 258 255 254 253 253 253 252 251 251 250 250 249 249 248 247 246 246 247 247 247 248 248 248
279 279 278 277 276 274 272 271 270 268 267 266 265 265 265 264 262 261 260 260 259 256 254 253 253 253 253 251 251 250 251 250 249 249 249 248 247 247 247 248 249 249 249
279 278 278 277 276 275 273 272 270 268 267 265 265 265 266 264 263 262 261 260 259 258 256 254 254 254 253 252 252 252 252 251 251 250 250 249 248 248 248 248 249 249 249
280 278 278 277 276 276 275 273 271 269 268 266 266 266 265 264 263 262 261 260 260 260 258 256 254 254 253 253 253 253 252 252 252 251 251 250 249 248 248 248 248 248 248
281 280 278 278 277 276 275 274 271 269 268 267 266 266 266 264 263 263 262 261 261 260 259 256 255 255 254 253 253 252 252 252 252 252 252 252 251 250 249 249 249 249 249
282 280 280 279 277 276 275 274 271 269 268 267 266 266 266 264 263 263 262 261 261 260 260 258 257 256 255 254 253 252 251 251 252 252 252 252 252 252 251 250 249 249 249
283 281 280 280 278 276 275 274 272 271 269 268 266 266 266 264 263 263 262 262 261 261 260 259 258 256 256 255 254 253 253 252 252 252 252 253 253 252 251 250 250 250 249
283 282 281 280 278 277 275 274 273 272 269 268 267 266 266 265 265 264 263 263 263 262 261 261 259 257 255 255 254 253 253 253 253 253 253 253 253 252 251 251 250 250 249
284 283 281 280 278 277 276 275 273 272 270 269 268 267 267 266 266 265 263 263 264 263 262 261 260 257 255 255 254 253 253 253 252 253 253 253 253 253 252 251 251 250 250
284 283 282 281 280 278 276 275 273 272 272 270 269 268 267 266 265 265 264 264 263 263 263 262 261 259 257 256 255 254 253 253 252 252 252 253 253 253 253 252 251 251 251
284 282 281 280 280 278 277 275 274 273 273 271 270 269 268 266 266 265 265 264 264 263 263 262 262 261 259 257 256 254 253 253 253 252 252 253 252 253 253 252 252 251 251
284 281 280 280 280 279 277 275 274 273 273 272 270 269 268 268 267 267 266 266 265 264 264 263 262 261 260 259 257 256 254 253 253 253 253 253 252 252 252 252 252 252 252
284 282 281 281 280 279 278 276 274 273 273 272 270 270 270 269 268 268 268 267 266 265 264 263 261 259 259 259 258 256 255 255 254 253 253 253 253 254 253 253 254 254 254
Height
5757 5758 5758 5759 5760 5761 5762 5763 5764 5765 5766 5767 5768 5770 5771 5772 5773 5775 5776 5778 5779 5780 5782 5784 5785 5787 5789 5790 5792 5793 5795 5796 5798 5799 5800 5802 5803 5804 5805 5806 5807 5808 5810
5748 5749 5749 5750 5751 5751 5752 5753 5754 5755 5756 5757 5759 5760 5761 5762 5764 5765 5766 5768 5769 5771 5773 5775 5776 5778 5780 5782 5783 5785 5787 5789 5790 5791 5793 5795 5796 5797 5799 5800 5801 5802 5803
5739 5739 5739 5739 5740 5741 5742 5743 5744 5745 5746 5747 5748 5749 5750 5752 5753 5754 5756 5757 5759 5761 5763 5764 5766 5768 5770 5772 5774 5776 5778 5780 5781 5783 5785 5787 5789 5790 5792 5793 5794 5796 5797
5729 5728 5728 5729 5729 5730 5731 5732 5732 5733 5734 5735 5736 5737 5738 5740 5741 5743 5744 5745 5747 5749 5751 5753 5755 5758 5760 5762 5764 5766 5768 5770 5772 5774 5776 5778 5780 5782 5784 5785 5787 5788 5790
5717 5717 5717 5717 5718 5718 5719 5720 5720 5721 5722 5722 5723 5724 5725 5726 5728 5729 5731 5733 5735 5737 5739 5741 5744 5746 5748 5750 5753 5755 5758 5760 5762 5765 5767 5769 5771 5773 5775 5777 5779 5781 5782
5705 5705 5705 5705 5705 5706 5706 5707 5707 5707 5708 5709 5709 5710 5710 5712 5713 5715 5717 5719 5721 5723 5725 5728 5731 5733 5735 5738 5741 5743 5746 5749 5751 5754 5756 5759 5761 5763 5766 5768 5770 5772 5774
5693 5692 5692 5692 5692 5693 5693 5693 5693 5693 5693 5694 5695 5695 5696 5697 5698 5699 5701 5703 5706 5709 5711 5714 5717 5719 5722 5725 5728 5730 5733 5736 5740 5742 5745 5748 5750 5753 5756 5758 5760 5762 5765
5679 5679 5678 5678 5678 5678 5678 5678 5678 5678 5678 5678 5679 5680 5681 5682 5683 5684 5685 5687 5690 5692 5695 5698 5701 5704 5707 5710 5713 5717 5720 5723 5727 5730 5733 5736 5739 5742 5745 5747 5750 5752 5755
5665 5664 5663 5663 5663 5663 5662 5662 5662 5662 5662 5662 5662 5663 5664 5666 5668 5670 5670 5672 5673 5676 5679 5681 5684 5688 5691 5695 5699 5702 5705 5709 5712 5716 5719 5723 5726 5730 5733 5736 5738 5741 5744
5650 5649 5648 5647 5647 5647 5646 5646 5645 5646 5646 5647 5646 5646 5647 5648 5650 5653 5656 5656 5657 5660 5662 5665 5668 5671 5675 5678 5682 5686 5689 5693 5697 5701 5705 5709 5713 5716 5720 5723 5726 5729 5732
5635 5633 5632 5632 5631 5630 5630 5629 5629 5629 5629 5630 5630 5630 5630 5631 5631 5634 5639 5642 5643 5644 5646 5648 5651 5654 5658 5662 5666 5670 5673 5677 5682 5686 5690 5694 5698 5702 5706 5710 5713 5717 5720
5621 5619 5617 5616 5614 5614 5613 5612 5612 5612 5612 5612 5612 5612 5613 5614 5615 5617 5620 5624 5627 5628 5630 5632 5635 5637 5641 5645 5649 5653 5657 5661 5666 5670 5674 5679 5683 5687 5691 5696 5699 5703 5707
5606 5604 5602 5600 5598 5597 5596 5595 5595 5594 5594 5595 5595 5595 5596 5596 5598 5600 5602 5605 5609 5612 5613 5616 5618 5621 5625 5628 5632 5636 5640 5644 5649 5653 5657 5662 5667 5671 5676 5680 5684 5688 5692
5592 5589 5587 5585 5582 5581 5580 5579 5578 5578 5578 5578 5578 5579 5580 5580 5581 5583 5585 5587 5591 5594 5597 5600 5601 5604 5608 5611 5615 5619 5623 5627 5631 5635 5640 5645 5650 5654 5659 5664 5668 5673 5677
5577 5574 5572 5570 5568 5566 5564 5563 5563 5562 5562 5562 5562 5563 5563 5564 5565 5567 5568 5570 5573 5577 5581 5583 5584 5587 5590 5594 5597 5602 5606 5610 5613 5617 5622 5627 5631 5636 5641 5646 5651 5656 5660
5562 5559 5557 5555 5553 5551 5549 5548 5547 5546 5546 5547 5547 5547 5548 5548 5549 5550 5552 5553 5555 5559 5563 5566 5567 5569 5572 5576 5579 5583 5587 5591 5595 5599 5603 5608 5612 5617 5622 5627 5632 5637 5642
5547 5545 5543 5540 5538 5536 5534 5533 5531 5531 5531 5531 5531 5532 5532 5533 5533 5534 5535 5537 5539 5541 5545 5549 5550 5552 5554 5558 5561 5564 5568 5572 5576 5580 5583 5587 5592 5597 5602 5607 5612 5617 5623
5534 5531 5528 5526 5524 5521 5519 5518 5517 5516 5516 5516 5516 5516 5516 5517 5518 5518 5519 5521 5522 5524 5527 5531 5533 5534 5537 5540 5543 5546 5550 5553 5557 5561 5564 5568 5572 5577 5581 5586 5591 5597 5602
5520 5517 5514 5512 5509 5507 5505 5503 5502 5502 5501 5501 5501 5501 5501 5501 5502 5503 5504 5505 5506 5508 5510 5512 5516 5517 5520 5522 5525 5528 5531 5535 5538 5542 5545 5549 5553 5556 5561 5566 5571 5576 5582
5506 5504 5501 5498 5496 5493 5491 5490 5488 5487 5487 5486 5486 5485 5485 5486 5487 5488 5488 5490 5491 5492 5494 5496 5499 5501 5503 5504 5507 5510 5513 5516 5520 5523 5527 5530 5534 5537 5542 5547 5553 5557 5562
5493 5490 5488 5485 5482 5480 5478 5476 5475 5474 5473 5472 5471 5471 5471 5471 5472 5472 5473 5475 5475 5477 5478 5479 5482 5484 5486 5487 5490 5492 5495 5499 5502 5505 5508 5513 5516 5520 5523 5527 5530 5535 5540
5481 5478 5475 5472 5469 5467 5465 5463 5462 5461 5460 5459 5458 5458 5457 5457 5457 5458 5459 5459 5460 5461 5463 5464 5466 5468 5470 5471 5472 5474 5478 5482 5486 5490 5490 5494 5497 5501 5504 5508 5511 5515 5520
5467 5464 5462 5459 5457 5455 5453 5451 5449 5448 5447 5446 5445 5445 5444 5444 5444 5444 5444 5445 5446 5446 5447 5449 5450 5451 5453 5456 5457 5459 5461 5463 5467 5470 5472 5477 5479 5482 5485 5488 5492 5496 5500
5454 5451 5449 5447 5444 5442 5440 5438 5437 5436 5434 5433 5433 5432 5432 5431 5431 5431 5431 5431 5432 5432 5433 5434 5436 5437 5437 5438 5440 5442 5444 5447 5450 5452 5454 5458 5461 5464 5467 5470 5473 5476 5480
5440 5438 5436 5434 5432 5430 5428 5426 5424 5423 5422 5421 5420 5420 5419 5419 5418 5418 5418 5418 5419 5419 5419 5419 5421 5422 5422 5423 5424 5426 5429 5431 5435 5437 5438 5441 5444 5447 5451 5453 5456 5458 5461
5427 5425 5423 5421 5420 5418 5416 5414 5412 5412 5411 5410 5409 5408 5407 5406 5406 5404 5404 5405 5405 5405 5406 5406 5406 5407 5408 5410 5410 5412 5414 5416 5419 5422 5424 5425 5428 5430 5434 5438 5439 5441 5443